{"data":{"norad_id":65988,"epoch":"2026-09-20T23:36:45.222336Z","epoch_age_seconds":98672,"freshness":"FRESH","line1":"1 65988U 25230Q   26263.98385674  .00000113  00000+0  89518-4 0  9996","line2":"2 65988  81.2990 122.7090 0001287 346.9008  13.2115 13.84992504 47083","mean_motion":13.84992504,"eccentricity":0.0001287,"inclination_deg":81.299,"raan_deg":122.709,"arg_perigee_deg":346.9008,"mean_anomaly_deg":13.2115,"bstar":8.9518e-5,"rev_number":4708,"period_min":103.97168185684,"perigee_km":945.28952636304,"apogee_km":947.17481898809,"semimajor_km":7324.3691726756,"source":"CELESTRAK","updated_at":"2026-09-21T09:00:15.689917Z"}}